Flag for Brazil Weather past 2 weeks in Porto Alegre, Rio Grande do Sul, Brazil

Now
72 °F

Mostly cloudy.


Feels Like: 69 °F
Forecast: 67 / 72 °F
Wind: 3 mph from Southeast

Location: Porto Alegre Aero-Porto


UV Index: 3 (Moderate)

Visibility: 5 mi


Pressure: 30.01 "Hg

Humidity: 88%

Dew point: 68 °F

Location of Porto AlegreLocation

Historic Weather in Porto Alegre

°F

Porto Alegre temperature yesterday

Maximum temperature yesterday: 81 °F (at 1:00 PM)
Minimum temperature yesterday: 70 °F (at 6:00 AM)
Average temperature yesterday: 74 °F

Past Weeks' High & Low Weather Summary

 TemperatureHumidityPressure
High90 °F (Apr 6, 3:00 PM)100% (Apr 8, 11:00 PM)30.24 "Hg (Apr 8, 11:00 PM)
Low37 °F (Apr 9, 12:00 AM)25% (Apr 9, 1:00 AM)29.56 "Hg (Apr 12, 5:00 AM)
Average72 °F77%29.96 "Hg
* Reported Apr 4 8:00 AM — Apr 19 8:00 AM, Porto Alegre, Weather by CustomWeather, © 2014

Note: Actual official high and low records may vary slightly from our data, if they occured in-between our weather recording intervals... More about our weather records

Advertising

Historic Weather Conditions — Data for Previous 24 hours

 ConditionsComfort  
Time TempWeatherWind HumidityBarometerVisibility
8:00 AM
Apr 19
70 °FMostly cloudy.2 mph94%30.01 "Hg5 mi
7:00 AM68 °FLight rain. Mostly cloudy.2 mph100%29.98 "Hg4 mi
6:00 AM70 °FLight rain. Fog.3 mph94%29.95 "Hg3 mi
5:00 AM70 °FLow clouds.5 mph94%29.95 "HgN/A
4:00 AM72 °FLow clouds.3 mph88%29.92 "HgN/A
3:00 AM70 °FLow clouds.1 mph94%29.92 "HgN/A
2:00 AM70 °FLow clouds.3 mph94%29.92 "HgN/A
1:00 AM70 °FLow clouds.3 mph94%29.92 "HgN/A
12:00 AM72 °FPassing clouds.3 mph88%29.92 "HgN/A
11:00 PM
Apr 18
70 °FPassing clouds.5 mph94%29.92 "HgN/A
10:00 PM72 °FPassing clouds.7 mph88%29.89 "HgN/A
9:00 PM72 °FPassing clouds.5 mph88%29.89 "HgN/A
8:00 PM73 °FPassing clouds.6 mph83%29.89 "HgN/A
7:00 PM75 °FPassing clouds.7 mph78%29.86 "HgN/A
6:00 PM77 °FPassing clouds.2 mph69%29.86 "HgN/A
5:00 PM79 °FScattered clouds.5 mph65%29.83 "HgN/A
4:00 PM79 °FPartly sunny.9 mph65%29.83 "HgN/A
3:00 PM79 °FPartly sunny.8 mph65%29.83 "HgN/A
2:00 PM81 °FBroken clouds.8 mph62%29.83 "HgN/A
1:00 PM81 °FBroken clouds.9 mph66%29.86 "HgN/A
12:00 PM77 °FBroken clouds.8 mph69%29.86 "HgN/A
11:00 AM77 °FPartly sunny.9 mph69%29.86 "HgN/A
10:00 AM75 °FPartly sunny.7 mph78%29.89 "HgN/A
9:00 AM72 °FSunny.8 mph88%29.86 "Hg10 mi
Weather by CustomWeather, © 2014

See weather overview